Weather History for Fort Dodge, IA

Change the Weather History Date:

Tuesday, March 19, 2013

  Actual Average Record
Temperature  
Mean Temperature 20 °F -  
Max Temperature 30 °F 45 °F 78 °F (2012)
Min Temperature 10 °F 26 °F 1 °F (1965)
Degree Days  
Heating Degree Days 45    
Moisture  
Dew Point 9 °F    
Average Humidity 64    
Maximum Humidity 74    
Minimum Humidity 53    
Precipitation  
Precipitation 0.00 in - - ()
Sea Level Pressure  
Sea Level Pressure 30.13 in    
Wind  
Wind Speed 10 mph (NW)    
Max Wind Speed 17 mph    
Max Gust Speed 23 mph    
Visibility 10 miles    
Events      
Averages and records for this station are not official NWS values.
T = Trace of Precipitation, MM = Missing Value Source: NWS Daily Summary

Daily Weather History Graph

Daily Weather History Graph

Search for Another Location

Airport:

Trip Planner

Search our weather history database for the weather conditions in past years. The results will help you decide how hot, cold, wet, or windy it might be!

Date:

Astronomy

Mar. 19, 2013 Rise Set
Actual Time 7:21 AM CDT 7:28 PM CDT
Civil Twilight 6:53 AM CDT 7:56 PM CDT
Nautical Twilight 6:20 AM CDT 8:29 PM CDT
Astronomical Twilight 5:46 AM CDT 9:02 PM CDT
Moon 12:05 PM CDT 2:22 AM CDT
Length of Visible Light 13h 03m
Length of Day
12h 06m
Waxing Crescent, 50% of the Moon is Illuminated
Mar 19
Waxing Crescent
Mar 19
First Quarter
Mar 27
Full
Apr 2
Last Quarter
Apr 10
New

Hourly Weather History & Observations

Time (CDT) Temp. Windchill Dew Point Humidity Pressure Visibility Wind Dir Wind Speed Gust Speed Precip Events Conditions
12:15 AM 15.8 °F 3.4 °F 6.8 °F 68% 29.95 in 10.0 mi NW 10.4 mph 20.7 mph N/A   Clear
12:35 AM 15.8 °F 2.7 °F 5.0 °F 62% 29.96 in 10.0 mi NW 11.5 mph 19.6 mph N/A   Clear
12:55 AM 15.8 °F 2.7 °F 5.0 °F 62% 29.96 in 10.0 mi NW 11.5 mph 18.4 mph N/A   Clear
1:15 AM 15.8 °F 4.2 °F 5.0 °F 62% 29.96 in 10.0 mi NW 9.2 mph - N/A   Clear
1:35 AM 14.0 °F 2.0 °F 5.0 °F 67% 29.96 in 10.0 mi NW 9.2 mph 19.6 mph N/A   Clear
1:55 AM 14.0 °F 0.5 °F 5.0 °F 67% 29.97 in 10.0 mi WNW 11.5 mph 16.1 mph N/A   Clear
2:15 AM 14.0 °F 1.2 °F 6.8 °F 73% 30.00 in 10.0 mi West 10.4 mph 17.3 mph N/A   Clear
2:35 AM 14.0 °F -0.2 °F 5.0 °F 67% 30.01 in 10.0 mi WNW 12.7 mph 18.4 mph N/A   Clear
2:55 AM 14.0 °F 0.5 °F 3.2 °F 62% 30.02 in 10.0 mi WNW 11.5 mph 19.6 mph N/A   Clear
3:15 AM 14.0 °F 0.5 °F 3.2 °F 62% 30.02 in 10.0 mi WNW 11.5 mph 20.7 mph N/A   Clear
3:35 AM 12.2 °F -1.8 °F 3.2 °F 67% 30.03 in 10.0 mi WNW 11.5 mph 16.1 mph N/A   Clear
3:55 AM 12.2 °F -1.0 °F 3.2 °F 67% 30.03 in 10.0 mi WNW 10.4 mph 18.4 mph N/A   Clear
4:15 AM 12.2 °F -1.0 °F 3.2 °F 67% 30.03 in 10.0 mi WNW 10.4 mph 18.4 mph N/A   Clear
4:35 AM 12.2 °F -3.1 °F 3.2 °F 67% 30.04 in 10.0 mi WNW 13.8 mph 21.9 mph N/A   Clear
4:55 AM 12.2 °F -0.2 °F 3.2 °F 67% 30.03 in 10.0 mi WNW 9.2 mph - N/A   Clear
5:15 AM 12.2 °F -2.5 °F 3.2 °F 67% 30.04 in 10.0 mi WNW 12.7 mph 18.4 mph N/A   Clear
5:35 AM 12.2 °F -0.2 °F 3.2 °F 67% 30.04 in 10.0 mi NW 9.2 mph - N/A   Clear
5:55 AM 12.2 °F -2.5 °F 3.2 °F 67% 30.05 in 10.0 mi NW 12.7 mph 18.4 mph N/A   Clear
6:15 AM 10.4 °F -1.5 °F 1.4 °F 67% 30.05 in 10.0 mi NW 8.1 mph - N/A   Clear
6:35 AM 10.4 °F -3.3 °F 1.4 °F 67% 30.06 in 10.0 mi WNW 10.4 mph 17.3 mph N/A   Clear
6:55 AM 10.4 °F -1.5 °F 1.4 °F 67% 30.06 in 10.0 mi NW 8.1 mph - N/A   Clear
7:15 AM 10.4 °F -2.4 °F 3.2 °F 73% 30.07 in 10.0 mi WNW 9.2 mph - N/A   Clear
7:35 AM 10.4 °F 0.8 °F 1.4 °F 67% 30.08 in 10.0 mi WNW 5.8 mph - N/A   Clear
7:55 AM 10.4 °F -3.3 °F 3.2 °F 73% 30.10 in 10.0 mi WNW 10.4 mph - N/A   Clear
8:15 AM 12.2 °F 0.7 °F 3.2 °F 67% 30.11 in 10.0 mi NW 8.1 mph - N/A   Clear
8:35 AM 12.2 °F -1.8 °F 3.2 °F 67% 30.11 in 10.0 mi NW 11.5 mph 18.4 mph N/A   Clear
8:55 AM 14.0 °F 2.9 °F 3.2 °F 62% 30.12 in 10.0 mi WNW 8.1 mph - N/A   Clear
9:15 AM 14.0 °F 1.2 °F 3.2 °F 62% 30.13 in 10.0 mi WNW 10.4 mph - N/A   Clear
9:35 AM 15.8 °F 5.1 °F 3.2 °F 58% 30.14 in 10.0 mi NNW 8.1 mph - N/A   Clear
9:55 AM 15.8 °F 4.2 °F 5.0 °F 62% 30.15 in 10.0 mi NW 9.2 mph 16.1 mph N/A   Clear
10:15 AM 17.6 °F 4.3 °F 5.0 °F 58% 30.16 in 10.0 mi NW 12.7 mph 16.1 mph N/A   Clear
10:35 AM 17.6 °F 6.4 °F 3.2 °F 53% 30.16 in 10.0 mi NW 9.2 mph 16.1 mph N/A   Clear
10:55 AM 17.6 °F 5.0 °F 5.0 °F 58% 30.15 in 10.0 mi NW 11.5 mph 16.1 mph N/A   Clear
11:15 AM 17.6 °F 5.7 °F 6.8 °F 63% 30.15 in 10.0 mi NW 10.4 mph 16.1 mph N/A   Clear
11:35 AM 19.4 °F 8.6 °F 6.8 °F 58% 30.15 in 10.0 mi NNW 9.2 mph - N/A   Scattered Clouds
11:55 AM 19.4 °F 10.4 °F 8.6 °F 63% 30.15 in 10.0 mi WNW 6.9 mph - N/A   Mostly Cloudy
12:15 PM 21.2 °F 12.6 °F 8.6 °F 58% 30.16 in 10.0 mi WNW 6.9 mph - N/A   Partly Cloudy
12:35 PM 21.2 °F 11.7 °F 6.8 °F 54% 30.17 in 10.0 mi NW 8.1 mph - N/A   Clear
12:55 PM 21.2 °F 11.7 °F 10.4 °F 63% 30.17 in 10.0 mi West 8.1 mph - N/A   Partly Cloudy
1:15 PM 23.0 °F 15.8 °F 10.4 °F 59% 30.16 in 10.0 mi WNW 5.8 mph - N/A   Scattered Clouds
1:35 PM 24.8 °F 16.1 °F 10.4 °F 54% 30.18 in 10.0 mi West 8.1 mph 17.3 mph N/A   Partly Cloudy
1:55 PM 26.6 °F 16.2 °F 12.2 °F 55% 30.17 in 10.0 mi West 11.5 mph 16.1 mph N/A   Scattered Clouds
2:15 PM 24.8 °F 14.6 °F 10.4 °F 54% 30.17 in 10.0 mi WNW 10.4 mph - N/A   Scattered Clouds
2:35 PM 26.6 °F 18.2 °F 12.2 °F 55% 30.17 in 10.0 mi NW 8.1 mph - N/A   Scattered Clouds
2:55 PM 26.6 °F 16.8 °F 14.0 °F 59% 30.17 in 10.0 mi WNW 10.4 mph - N/A   Clear
3:15 PM 26.6 °F 18.2 °F 14.0 °F 59% 30.16 in 10.0 mi WNW 8.1 mph - N/A   Clear
3:35 PM 28.4 °F 22.2 °F 15.8 °F 59% 30.16 in 10.0 mi WNW 5.8 mph - N/A   Clear
3:55 PM 28.4 °F 20.4 °F 15.8 °F 59% 30.16 in 10.0 mi West 8.1 mph - N/A   Clear
4:15 PM 28.4 °F 19.7 °F 15.8 °F 59% 30.16 in 10.0 mi WNW 9.2 mph - N/A   Clear
4:35 PM 28.4 °F 19.1 °F 15.8 °F 59% 30.16 in 10.0 mi West 10.4 mph 16.1 mph N/A   Clear
4:55 PM 28.4 °F 19.1 °F 15.8 °F 59% 30.17 in 10.0 mi WNW 10.4 mph - N/A   Clear
5:15 PM 30.2 °F 20.2 °F 15.8 °F 55% 30.17 in 10.0 mi West 12.7 mph 16.1 mph N/A   Clear
5:35 PM 30.2 °F 21.9 °F 15.8 °F 55% 30.17 in 10.0 mi WNW 9.2 mph - N/A   Clear
5:55 PM 30.2 °F 22.6 °F 17.6 °F 60% 30.17 in 10.0 mi WNW 8.1 mph 16.1 mph N/A   Clear
6:15 PM 30.2 °F 21.9 °F 15.8 °F 55% 30.18 in 10.0 mi WNW 9.2 mph - N/A   Clear
6:35 PM 28.4 °F 20.4 °F 15.8 °F 59% 30.18 in 10.0 mi NW 8.1 mph - N/A   Clear
6:55 PM 28.4 °F 21.2 °F 17.6 °F 64% 30.18 in 10.0 mi WNW 6.9 mph - N/A   Scattered Clouds
7:15 PM 28.4 °F 19.7 °F 17.6 °F 64% 30.18 in 10.0 mi WNW 9.2 mph - N/A   Overcast
7:35 PM 28.4 °F 19.7 °F 17.6 °F 64% 30.18 in 10.0 mi WNW 9.2 mph - N/A   Overcast
7:55 PM 28.4 °F 16.2 °F 19.4 °F 69% 30.20 in 10.0 mi NNW 17.3 mph 23.0 mph N/A   Mostly Cloudy
8:15 PM 26.6 °F 16.2 °F 17.6 °F 69% 30.21 in 7.0 mi North 11.5 mph 21.9 mph N/A   Overcast
8:35 PM 24.8 °F 14.0 °F 17.6 °F 74% 30.21 in 10.0 mi North 11.5 mph 21.9 mph N/A   Mostly Cloudy
8:55 PM 24.8 °F 15.3 °F 17.6 °F 74% 30.22 in 10.0 mi North 9.2 mph 16.1 mph N/A   Mostly Cloudy
9:15 PM 24.8 °F 16.9 °F 15.8 °F 69% 30.23 in 10.0 mi NNW 6.9 mph - N/A   Scattered Clouds
9:35 PM 21.2 °F 12.6 °F 14.0 °F 74% 30.24 in 10.0 mi North 6.9 mph 18.4 mph N/A   Clear
9:55 PM 21.2 °F 7.3 °F 12.2 °F 68% 30.24 in 10.0 mi North 16.1 mph - N/A   Partly Cloudy
10:15 PM 19.4 °F 7.2 °F 10.4 °F 68% 30.25 in 10.0 mi North 11.5 mph 18.4 mph N/A   Scattered Clouds
10:35 PM 17.6 °F 5.7 °F 8.6 °F 68% 30.26 in 10.0 mi North 10.4 mph 19.6 mph N/A   Partly Cloudy
10:55 PM 17.6 °F 6.4 °F 8.6 °F 68% 30.26 in 10.0 mi North 9.2 mph - N/A   Clear
11:15 PM 17.6 °F 6.4 °F 8.6 °F 68% 30.27 in 10.0 mi NNW 9.2 mph - N/A   Clear
11:35 PM 17.6 °F 8.2 °F 8.6 °F 68% 30.27 in 10.0 mi NNW 6.9 mph - N/A   Clear
11:55 PM 17.6 °F 7.3 °F 8.6 °F 68% 30.27 in 10.0 mi NNW 8.1 mph - N/A   Partly Cloudy